CW2523 Weather Reports


time (UTC)temp
F
wind
direction
speed
knots
gust
knots
rain 1hr
in
rain 24hr
in
rain mn
in
humidity
%
barometer
mb
20260510190552 68 39 4.3 10.4 0.00 0.00 0.00 52 1019.6
20260510190059 68 8 5.2 10.4 0.00 0.00 0.00 52 1019.7
20260510185549 69 3 4.3 8.7 0.00 0.00 0.00 51 1019.7
20260510185050 69 330 3.5 8.7 0.00 0.00 0.00 49 1019.5
20260510184555 68 56 4.3 8.7 0.00 0.00 0.00 49 1019.4
20260510184053 68 36 4.3 8.7 0.00 0.00 0.00 50 1019.4
20260510183550 69 39 3.5 7.0 0.00 0.00 0.00 52 1019.4
20260510183057 69 56 3.5 11.3 0.00 0.00 0.00 51 1019.5
20260510182554 69 52 2.6 11.3 0.00 0.00 0.00 56 1019.4
20260510182054 69 25 4.3 11.3 0.00 0.00 0.00 55 1019.4
20260510181552 68 33 3.5 7.8 0.00 0.00 0.00 55 1019.2
20260510181050 68 37 3.5 7.8 0.00 0.00 0.00 56 1019.1
20260510180550 68 72 3.5 8.7 0.00 0.00 0.00 54 1019.3
20260510180112 68 22 3.5 8.7 0.00 0.00 0.00 55 1019.2
20260510175549 68 41 4.3 7.8 0.00 0.00 0.00 54 1019.2
20260510175049 68 62 2.6 7.8 0.00 0.00 0.00 55 1019.2
20260510174557 68 45 3.5 7.8 0.00 0.00 0.00 52 1019.2
20260510174050 67 47 3.5 10.4 0.00 0.00 0.00 54 1019.1
20260510173552 67 34 4.3 10.4 0.00 0.00 0.00 56 1019.0
20260510173057 68 39 2.6 7.8 0.00 0.00 0.00 54 1019.1
20260510172550 68 37 3.5 7.8 0.00 0.00 0.00 59 1019.1
20260510172050 68 95 4.3 9.6 0.00 0.00 0.00 57 1019.1
20260510171603 67 41 3.5 9.6 0.00 0.00 0.00 57 1019.1
20260510171050 67 35 4.3 9.6 0.00 0.00 0.00 56 1019.1
20260510170551 66 70 3.5 9.6 0.00 0.00 0.00 53 1019.1
20260510165550 66 58 5.2 9.6 0.00 0.00 0.00 59 1019.1
20260510165052 66 7 5.2 11.3 0.00 0.00 0.00 61 1019.0
20260510164559 65 36 5.2 11.3 0.00 0.00 0.00 59 1019.0
20260510164051 65 48 5.2 11.3 0.00 0.00 0.00 62 1018.9
20260510163550 65 43 7.0 10.4 0.00 0.00 0.00 58 1018.9
20260510163053 65 26 5.2 9.6 0.00 0.00 0.00 58 1018.7
20260510162549 65 39 5.2 10.4 0.00 0.00 0.00 60 1018.7
20260510162049 65 35 4.3 11.3 0.00 0.00 0.00 59 1018.6
20260510161554 65 66 6.1 11.3 0.00 0.00 0.00 61 1018.7
20260510161051 65 347 4.3 9.6 0.00 0.00 0.00 61 1018.6
20260510160551 64 54 5.2 12.2 0.00 0.00 0.00 64 1018.5
20260510160100 64 8 7.0 12.2 0.00 0.00 0.00 62 1018.4
20260510155550 64 33 5.2 12.2 0.00 0.00 0.00 63 1018.3
20260510155052 64 43 6.1 12.2 0.00 0.00 0.00 63 1018.3
20260510154603 64 37 5.2 10.4 0.00 0.00 0.00 64 1018.3
20260510154053 63 29 4.3 10.4 0.00 0.00 0.00 67 1018.3
20260510153549 63 28 5.2 10.4 0.00 0.00 0.00 66 1018.4
20260510153056 63 41 5.2 10.4 0.00 0.00 0.00 66 1018.6
20260510152550 63 20 2.6 7.8 0.00 0.00 0.00 68 1018.5
20260510152052 63 13 2.6 7.0 0.00 0.00 0.00 71 1018.4
20260510151555 63 33 3.5 8.7 0.00 0.00 0.00 69 1018.5
20260510151052 62 54 4.3 8.7 0.00 0.00 0.00 69 1018.5
20260510150551 62 12 5.2 8.7 0.00 0.00 0.00 68 1018.4
20260510150054 63 35 5.2 8.7 0.00 0.00 0.00 68 1018.4
20260510145549 63 20 4.3 9.6 0.00 0.00 0.00 69 1018.5
20260510145049 63 56 3.5 9.6 0.00 0.00 0.00 72 1018.4
20260510144554 62 41 3.5 7.8 0.00 0.00 0.00 71 1018.3
20260510144050 63 41 2.6 8.7 0.00 0.00 0.00 72 1018.4
20260510143550 63 36 3.5 8.7 0.00 0.00 0.00 74 1018.3
20260510143058 62 344 2.6 9.6 0.00 0.00 0.00 75 1018.3
20260510142551 62 338 3.5 11.3 0.00 0.00 0.00 77 1018.2
20260510142050 61 24 4.3 11.3 0.00 0.00 0.00 77 1018.1
20260510141553 61 62 6.1 10.4 0.00 0.00 0.00 77 1018.1
20260510141050 61 3 5.2 10.4 0.00 0.00 0.00 78 1018.1
20260510140554 60 22 5.2 10.4 0.00 0.00 0.00 79 1018.0
20260510140052 60 20 5.2 10.4 0.00 0.00 0.00 78 1017.9
20260510135550 60 47 6.1 11.3 0.00 0.00 0.00 79 1017.9
20260510135050 60 20 6.1 11.3 0.00 0.00 0.00 79 1017.9
20260510134555 60 31 6.1 10.4 0.00 0.00 0.00 79 1017.8
20260510134054 60 26 5.2 10.4 0.00 0.00 0.00 79 1017.7
20260510133553 60 7 4.3 10.4 0.00 0.00 0.00 79 1017.6
20260510133059 60 37 6.1 10.4 0.00 0.00 0.00 78 1017.6
20260510132551 60 62 5.2 9.6 0.00 0.00 0.00 78 1017.3
20260510132053 60 44 5.2 9.6 0.00 0.00 0.00 79 1017.3
20260510131555 60 54 5.2 12.2 0.00 0.00 0.00 80 1017.2
20260510131050 59 26 6.1 12.2 0.00 0.00 0.00 81 1017.0
20260510130554 59 75 4.3 8.7 0.00 0.00 0.00 83 1017.0
20260510130056 58 32 3.5 8.7 0.00 0.00 0.00 84 1017.0
20260510125549 58 43 3.5 8.7 0.00 0.00 0.00 85 1017.0
20260510125051 58 79 4.3 8.7 0.00 0.00 0.00 85 1016.8
20260510124613 58 70 3.5 7.8 0.00 0.00 0.00 85 1016.8
20260510124053 57 16 3.5 7.8 0.00 0.00 0.00 85 1016.9
20260510123551 56 31 3.5 7.0 0.00 0.00 0.00 85 1016.8
20260510123056 56 5 2.6 6.1 0.00 0.00 0.00 85 1016.7
20260510122551 56 2 2.6 6.1 0.00 0.00 0.00 84 1016.7
20260510122049 56 7 2.6 6.1 0.00 0.00 0.00 84 1016.7
20260510121551 56 6 1.7 5.2 0.00 0.00 0.00 84 1016.7
20260510121050 56 350 0.0 6.1 0.00 0.00 0.00 84 1016.8
20260510120715 56 353 1.7 6.1 0.00 0.00 0.00 84 1016.7
20260510120549 56 353 1.7 6.1 0.00 0.00 0.00 84 1016.7
20260510120057 55 4 0.9 3.5 0.00 0.00 0.00 86 1016.5
20260510115549 54 27 0.9 2.6 0.00 0.01 0.00 88 1016.1
20260510115054 53 0 0.0 1.7 0.00 0.01 0.00 84 1015.9
20260510114552 53 0 0.9 1.7 0.00 0.01 0.00 84 1015.8
20260510114049 54 322 0.0 0.9 0.00 0.01 0.00 84 1015.9
20260510113552 54 0 0.0 0.0 0.00 0.01 0.00 83 1015.8
20260510113102 54 0 0.0 0.9 0.00 0.01 0.00 82 1015.8
20260510112549 54 0 0.0 0.9 0.00 0.01 0.00 82 1015.8
20260510112049 54 0 0.0 0.0 0.00 0.01 0.00 82 1015.8
20260510111610 54 0 0.0 0.0 0.00 0.01 0.00 82 1015.7
20260510111052 54 0 0.0 0.0 0.00 0.01 0.00 82 1015.7
20260510110549 54 0 0.0 1.7 0.00 0.01 0.00 82 1015.6
20260510110055 55 0 0.0 1.7 0.00 0.01 0.00 82 1015.5
20260510105549 55 337 0.0 2.6 0.00 0.01 0.00 82 1015.4
20260510105050 55 0 0.0 2.6 0.00 0.01 0.00 81 1015.3
20260510104606 55 0 0.9 2.6 0.00 0.01 0.00 81 1015.3
20260510104049 55 347 0.9 1.7 0.00 0.01 0.00 81 1015.2
20260510103548 55 341 0.0 1.7 0.00 0.01 0.00 81 1015.1
20260510103055 55 0 0.0 0.9 0.00 0.01 0.00 80 1015.1
20260510102549 55 0 0.0 0.9 0.00 0.01 0.00 80 1015.0
20260510102049 56 0 0.0 1.7 0.00 0.01 0.00 81 1015.1
20260510101552 56 0 0.0 1.7 0.00 0.01 0.00 80 1015.0
20260510101049 56 0 0.0 1.7 0.00 0.01 0.00 80 1014.8
20260510100553 56 0 0.0 1.7 0.00 0.01 0.00 79 1014.8
20260510100053 56 0 0.0 1.7 0.00 0.01 0.00 79 1014.7
20260510095549 57 0 0.0 0.0 0.00 0.01 0.00 78 1014.6
20260510095051 57 0 0.0 0.9 0.00 0.01 0.00 77 1014.6
20260510094550 57 0 0.0 0.9 0.00 0.01 0.00 75 1014.7
20260510094053 57 0 0.0 2.6 0.00 0.01 0.00 76 1014.8
20260510093549 57 0 0.0 2.6 0.00 0.01 0.00 76 1014.7
20260510093051 57 335 0.0 1.7 0.00 0.01 0.00 74 1014.6
20260510092549 57 0 0.0 1.7 0.00 0.01 0.00 75 1014.3
20260510092053 57 0 0.0 1.7 0.00 0.01 0.00 76 1014.2
20260510091559 56 81 0.0 0.9 0.00 0.01 0.00 76 1014.2
20260510091049 56 0 0.0 0.9 0.00 0.01 0.00 76 1014.1
20260510090550 56 0 0.0 0.9 0.00 0.01 0.00 76 1013.8
20260510090134 56 0 0.0 1.7 0.00 0.01 0.00 75 1013.9
20260510085552 56 0 0.0 2.6 0.00 0.01 0.00 75 1013.9
20260510085050 56 0 0.9 2.6 0.00 0.01 0.00 75 1013.8
20260510084602 56 81 0.9 2.6 0.00 0.01 0.00 77 1013.8
20260510084050 56 0 0.9 1.7 0.00 0.01 0.00 76 1013.8
20260510083552 56 81 0.9 1.7 0.00 0.01 0.00 76 1013.9
20260510083114 56 0 0.0 1.7 0.00 0.01 0.00 76 1013.9
20260510082549 56 0 0.0 1.7 0.00 0.01 0.00 77 1013.9
20260510082050 55 0 0.0 1.7 0.00 0.01 0.00 78 1014.0
20260510081601 55 81 0.0 1.7 0.00 0.01 0.00 77 1014.2
20260510081050 55 81 0.0 1.7 0.00 0.01 0.00 77 1014.1
20260510080551 55 81 0.0 2.6 0.00 0.01 0.00 77 1014.0
20260510075550 55 81 0.0 2.6 0.00 0.02 0.00 79 1013.9
20260510075049 56 81 0.9 2.6 0.00 0.02 0.00 78 1014.0
20260510074558 56 81 0.0 1.7 0.00 0.02 0.00 78 1014.0
20260510074050 56 0 0.0 2.6 0.00 0.02 0.00 77 1014.0
20260510073549 56 0 0.0 2.6 0.00 0.02 0.00 76 1013.9
20260510073057 57 81 1.7 2.6 0.00 0.02 0.00 74 1013.8
20260510072550 57 56 0.0 2.6 0.00 0.02 0.00 73 1013.9
20260510072052 57 56 0.0 2.6 0.00 0.02 0.00 73 1013.9
20260510071557 58 56 0.0 1.7 0.00 0.02 0.00 75 1013.9
20260510071050 58 45 0.0 2.6 0.00 0.02 0.00 71 1014.0
20260510070550 58 0 0.9 2.6 0.00 0.02 0.00 71 1014.0
20260510070109 59 0 0.0 2.6 0.00 0.02 0.00 69 1014.0
20260510065550 60 14 0.0 3.5 0.00 0.02 0.00 67 1014.0
20260510065049 60 0 0.9 6.1 0.00 0.02 0.00 66 1014.1
20260510064613 60 16 1.7 6.1 0.00 0.02 0.00 66 1014.2
20260510064050 60 8 1.7 6.1 0.00 0.02 0.00 67 1014.2
20260510063550 60 0 0.0 5.2 0.00 0.02 0.00 67 1014.3
20260510063106 59 355 0.9 5.2 0.00 0.02 0.00 69 1014.2
20260510062552 59 341 2.6 5.2 0.00 0.02 0.00 70 1014.1
20260510062049 59 359 0.0 1.7 0.00 0.02 0.00 70 1013.9
20260510061600 58 0 0.0 1.7 0.00 0.02 0.00 71 1013.7
20260510061053 58 125 0.9 1.7 0.00 0.02 0.00 72 1013.7
20260510060552 58 125 0.9 1.7 0.00 0.02 0.00 72 1013.6
20260510060053 59 125 0.0 1.7 0.00 0.02 0.00 71 1013.6
20260510055549 61 0 0.0 1.7 0.00 0.02 0.00 67 1013.6
20260510055049 62 0 0.0 1.7 0.00 0.02 0.00 65 1013.7
20260510054551 62 0 0.0 1.7 0.00 0.02 0.00 64 1013.7
20260510054049 61 0 0.0 1.7 0.00 0.02 0.00 65 1013.7
20260510053549 60 0 0.9 1.7 0.00 0.02 0.00 68 1013.6
20260510053053 59 0 0.0 1.7 0.00 0.02 0.00 71 1013.6
20260510052549 60 110 0.9 1.7 0.00 0.02 0.00 69 1013.5
20260510052049 60 110 0.9 1.7 0.00 0.02 0.00 68 1013.5
20260510051559 61 110 0.0 1.7 0.00 0.02 0.00 66 1013.4
20260510051054 62 110 0.9 1.7 0.00 0.02 0.00 66 1013.4
20260510050552 62 110 0.0 1.7 0.00 0.02 0.00 64 1013.4
20260510050051 63 110 0.9 1.7 0.00 0.02 0.00 63 1013.4
20260510045550 62 110 0.0 1.7 0.00 0.02 0.02 64 1013.4
20260510045050 63 0 0.0 1.7 0.00 0.02 0.02 64 1013.5
20260510044557 62 110 0.0 1.7 0.00 0.02 0.02 65 1013.3
20260510044049 61 0 0.0 1.7 0.00 0.02 0.02 66 1013.3
20260510043549 60 0 0.0 1.7 0.00 0.02 0.02 69 1013.2
20260510043053 59 0 0.0 1.7 0.00 0.02 0.02 72 1013.1
20260510042550 59 110 0.9 1.7 0.00 0.02 0.02 73 1012.9
20260510042049 59 110 0.9 1.7 0.00 0.02 0.02 72 1012.9
20260510041604 60 110 0.9 1.7 0.00 0.02 0.02 71 1013.0
20260510041049 61 110 0.0 1.7 0.00 0.02 0.02 68 1013.0
20260510040549 62 110 0.0 0.9 0.00 0.02 0.02 68 1013.1
20260510040049 61 0 0.0 1.7 0.00 0.02 0.02 70 1013.1
20260510035550 61 0 0.0 1.7 0.00 0.03 0.02 68 1013.2
20260510035049 61 110 0.9 1.7 0.00 0.03 0.02 68 1013.2
20260510034600 62 0 0.0 0.9 0.00 0.03 0.02 68 1013.2
20260510034050 63 110 0.0 0.9 0.00 0.03 0.02 66 1013.2
20260510033551 62 110 0.0 0.9 0.00 0.03 0.02 65 1013.2
20260510033051 62 110 0.0 0.9 0.00 0.03 0.02 67 1013.1
20260510032549 61 0 0.0 0.0 0.00 0.03 0.02 69 1013.0
20260510032049 61 0 0.0 0.0 0.00 0.03 0.02 71 1013.0
20260510031557 60 0 0.0 0.0 0.00 0.03 0.02 72 1012.8
20260510031049 60 0 0.0 1.7 0.00 0.03 0.02 73 1012.8
20260510030549 60 0 0.0 1.7 0.00 0.03 0.02 72 1012.5
20260510030056 60 110 0.9 1.7 0.00 0.03 0.02 71 1012.4
20260510025549 60 110 0.9 1.7 0.00 0.03 0.02 69 1012.3
20260510025053 61 110 0.9 2.6 0.00 0.03 0.02 68 1012.4
20260510024555 61 110 0.9 2.6 0.00 0.03 0.02 66 1012.4
20260510024049 61 110 0.9 1.7 0.00 0.03 0.02 66 1012.3
20260510023553 62 110 0.9 1.7 0.00 0.03 0.02 64 1012.3
20260510023053 63 110 0.9 1.7 0.00 0.03 0.02 61 1012.2
20260510022552 64 110 0.0 1.7 0.00 0.03 0.02 62 1012.1
20260510022056 63 0 0.0 1.7 0.00 0.03 0.02 60 1012.0
20260510021557 62 0 0.0 0.9 0.00 0.03 0.02 64 1011.9
20260510021049 62 0 0.0 0.9 0.00 0.03 0.02 65 1011.7
20260510020550 62 0 0.0 2.6 0.00 0.03 0.02 69 1011.6
20260510020100 61 0 0.9 2.6 0.00 0.03 0.02 67 1011.5
20260510015549 62 120 0.9 1.7 0.00 0.03 0.02 65 1011.3
20260510015049 62 0 0.0 1.7 0.00 0.03 0.02 66 1011.3
20260510014559 63 120 0.9 2.6 0.00 0.03 0.02 66 1011.2
20260510014049 63 120 0.9 2.6 0.00 0.03 0.02 66 1011.1
20260510013550 63 120 0.9 2.6 0.00 0.03 0.02 66 1011.1
20260510013058 64 120 0.9 1.7 0.00 0.03 0.02 62 1011.1
20260510012549 64 120 0.9 1.7 0.00 0.03 0.02 65 1011.1
20260510012049 65 120 0.9 1.7 0.00 0.03 0.02 63 1011.0
20260510011601 66 120 0.9 1.7 0.00 0.03 0.02 60 1011.0
20260510011048 66 120 0.9 1.7 0.00 0.03 0.02 60 1010.9
20260510010548 67 120 0.0 2.6 0.00 0.03 0.02 59 1010.9
20260510010056 67 120 0.9 2.6 0.00 0.03 0.02 58 1010.7
20260510005549 68 254 0.9 1.7 0.00 0.03 0.02 56 1010.7
20260510005052 68 254 0.9 1.7 0.00 0.03 0.02 56 1010.6
20260510004553 69 254 0.9 1.7 0.00 0.03 0.02 55 1010.4
20260510004049 70 0 0.0 1.7 0.00 0.03 0.02 55 1010.4
20260510003556 71 0 0.0 1.7 0.00 0.03 0.02 52 1010.4
20260510003057 73 254 0.0 0.9 0.00 0.03 0.02 49 1010.4
20260510002549 74 0 0.0 0.0 0.00 0.03 0.02 41 1010.3
20260510002049 74 0 0.0 0.9 0.00 0.03 0.02 40 1010.3
20260510001554 75 0 0.0 0.9 0.00 0.03 0.02 40 1010.3
20260510001053 75 0 0.0 0.9 0.00 0.03 0.02 38 1010.3
20260510000550 75 0 0.0 0.9 0.00 0.03 0.02 41 1010.4
20260510000059 75 0 0.0 0.9 0.00 0.03 0.02 40 1010.4
20260509235550 75 0 0.0 1.7 0.00 0.03 0.02 40 1010.5
20260509235050 76 0 0.0 1.7 0.00 0.03 0.02 39 1010.4
20260509234604 76 0 0.0 2.6 0.00 0.03 0.02 38 1010.4
20260509234050 76 276 0.0 2.6 0.00 0.03 0.02 37 1010.4
20260509233549 76 217 0.0 2.6 0.00 0.03 0.02 41 1010.4
20260509233057 76 327 0.0 3.5 0.00 0.03 0.02 37 1010.3
20260509232550 77 318 0.9 3.5 0.00 0.03 0.02 37 1010.3
20260509232050 77 303 1.7 4.3 0.00 0.03 0.02 34 1010.4
20260509231608 77 306 1.7 4.3 0.00 0.03 0.02 35 1010.3
20260509231050 78 207 1.7 4.3 0.00 0.03 0.02 40 1010.3
20260509230549 79 0 0.0 1.7 0.00 0.03 0.02 33 1010.4
20260509225549 79 0 0.0 5.2 0.00 0.03 0.02 41 1010.3
20260509225049 79 0 0.0 6.1 0.00 0.03 0.02 34 1010.3
20260509224556 78 339 1.7 6.1 0.00 0.03 0.02 38 1010.3
20260509224053 79 270 0.9 2.6 0.00 0.03 0.02 37 1010.2
20260509223549 79 293 0.9 3.5 0.00 0.03 0.02 33 1010.3
20260509223050 79 0 0.9 3.5 0.00 0.03 0.02 41 1010.3
20260509222552 79 318 0.9 3.5 0.00 0.03 0.02 36 1010.3
20260509222053 78 340 0.9 3.5 0.00 0.03 0.02 36 1010.4
20260509221557 77 313 1.7 6.1 0.00 0.03 0.02 36 1010.3
20260509221049 77 301 1.7 7.0 0.00 0.03 0.02 40 1010.3
20260509220549 79 314 2.6 8.7 0.00 0.03 0.02 36 1010.3
20260509220056 79 14 4.3 8.7 0.00 0.03 0.02 33 1010.2
20260509215549 80 322 2.6 7.8 0.00 0.03 0.02 32 1010.3
20260509215050 80 327 1.7 4.3 0.00 0.03 0.02 32 1010.2
20260509214554 79 0 1.7 4.3 0.00 0.03 0.02 34 1010.1
20260509214049 80 308 0.9 7.0 0.00 0.03 0.02 33 1010.2
20260509213550 79 319 1.7 7.0 0.00 0.03 0.02 32 1010.2
20260509213054 80 305 1.7 7.0 0.00 0.03 0.02 32 1010.1
20260509212549 80 212 0.9 7.0 0.00 0.03 0.02 37 1010.0
20260509212049 80 249 1.7 8.7 0.00 0.03 0.02 41 1010.2
20260509211555 80 241 2.6 8.7 0.00 0.03 0.02 37 1010.2
20260509211050 80 248 0.9 7.0 0.00 0.03 0.02 33 1010.4
20260509210552 80 199 2.6 7.0 0.00 0.03 0.02 32 1010.4
20260509210105 80 257 0.9 7.0 0.00 0.03 0.02 37 1010.5
20260509205553 80 0 1.7 7.0 0.00 0.03 0.02 38 1010.5
20260509205049 80 301 3.5 7.8 0.00 0.03 0.02 38 1010.6
20260509204553 80 329 0.9 7.8 0.00 0.03 0.02 34 1010.6
20260509204049 80 195 3.5 7.8 0.00 0.03 0.02 35 1010.6
20260509203552 80 226 0.9 5.2 0.00 0.03 0.02 37 1010.6
20260509203059 79 302 3.5 7.0 0.00 0.03 0.02 32 1010.7
20260509202552 80 16 1.7 7.0 0.00 0.03 0.02 31 1010.8
20260509202050 80 330 2.6 7.0 0.00 0.03 0.02 35 1011.0
20260509201559 80 314 2.6 7.0 0.00 0.03 0.02 37 1011.0
20260509201049 81 279 1.7 6.1 0.00 0.03 0.02 38 1011.1
20260509200549 80 14 0.9 5.2 0.00 0.03 0.02 35 1011.1
20260509200059 80 230 0.9 7.8 0.00 0.03 0.02 31 1011.1
20260509195553 80 346 2.6 10.4 0.00 0.03 0.02 36 1011.1
20260509195051 80 306 3.5 10.4 0.00 0.03 0.02 37 1011.2
20260509194556 80 219 3.5 7.8 0.00 0.03 0.02 41 1011.1
20260509194052 80 216 4.3 7.8 0.00 0.03 0.02 33 1011.0
20260509193550 80 10 0.9 4.3 0.00 0.03 0.02 38 1011.2
20260509193056 80 279 1.7 9.6 0.00 0.03 0.02 32 1011.2
20260509192551 80 72 2.6 9.6 0.00 0.03 0.02 36 1011.2
20260509192049 80 353 1.7 8.7 0.00 0.03 0.02 40 1011.2
20260509191555 80 176 1.7 8.7 0.00 0.03 0.02 36 1011.2
20260509191054 80 197 2.6 6.1 0.00 0.03 0.02 38 1011.1